Wind_Speed
29 29 29 29 29 29 29 30 31 31 31 32 33 33 32 32 33 33 33 33 33 34 35 36 36 37 38 39 41 42 41 41 42 41 40 39 38 37 37 37 37 37 36 36
29 29 28 28 28 28 28 29 30 31 32 32 32 32 31 32 33 33 33 33 33 34 35 36 36 37 38 39 40 40 41 41 41 40 41 41 40 38 38 38 38 38 38 38
28 28 28 28 28 28 28 28 28 29 31 32 33 32 31 31 32 33 33 32 32 34 34 35 35 36 38 39 39 40 40 41 41 42 42 41 41 40 39 39 39 39 39 39
28 27 28 28 28 28 27 27 28 28 29 30 31 33 30 31 32 32 33 34 34 34 35 35 36 36 37 38 39 40 41 41 41 42 42 43 42 41 39 39 39 40 40 39
27 27 27 28 28 28 27 27 28 27 28 29 29 31 29 29 30 31 32 34 34 34 35 35 36 37 37 37 39 40 41 42 41 42 43 43 42 42 42 40 39 40 41 41
27 27 27 28 28 28 28 27 28 28 28 29 28 30 29 28 28 29 31 32 33 34 35 36 36 37 37 38 39 40 40 42 43 43 43 43 43 43 43 43 41 40 41 42
26 26 26 26 26 26 27 27 27 28 29 29 28 29 28 27 27 28 29 29 30 32 34 34 35 36 37 39 39 39 41 42 43 43 43 43 43 44 43 43 42 41 41 42
26 25 24 24 25 25 25 26 27 28 28 28 28 29 27 27 27 28 29 29 29 30 32 33 34 36 37 38 39 39 41 41 42 42 42 43 43 44 44 44 43 42 42 42
24 25 25 25 25 26 25 25 26 28 29 28 28 28 28 27 27 27 28 28 29 30 31 32 33 34 36 37 38 39 40 41 42 42 42 43 44 44 44 45 44 43 42 42
23 25 25 25 26 26 26 26 26 27 29 29 28 28 27 26 26 25 26 27 29 30 32 33 34 35 35 36 37 38 40 41 42 43 43 43 44 44 44 44 44 44 44 43
24 25 24 25 25 25 26 27 27 28 29 29 29 28 27 26 25 26 26 27 28 29 30 32 32 33 34 35 37 38 39 40 41 42 42 43 43 44 45 44 44 45 45 46
24 25 25 24 25 26 26 27 27 28 29 29 29 28 26 26 26 26 27 27 27 28 29 30 31 31 32 34 35 36 38 39 40 41 42 43 43 43 44 44 45 45 46 47
23 24 26 26 25 25 26 26 27 28 29 29 29 28 27 26 25 26 26 27 27 27 27 28 30 31 33 33 34 35 36 37 38 40 41 42 43 44 44 44 45 46 46 46
23 24 25 25 25 26 26 27 27 28 28 29 28 27 26 27 27 27 27 27 27 28 28 29 29 30 32 33 33 34 35 36 37 39 40 42 42 43 44 45 45 46 46 46
24 25 25 25 25 26 27 27 28 28 28 29 28 28 27 27 28 28 28 28 28 28 28 29 30 30 31 31 32 33 34 35 36 38 39 40 42 43 44 45 45 46 46 47
23 24 24 25 25 27 27 27 28 28 28 29 28 27 27 28 29 28 28 29 29 29 29 29 30 30 30 31 31 32 33 35 36 37 38 39 41 42 43 44 44 45 47 47
23 23 24 25 26 28 27 26 27 28 29 29 28 26 26 27 27 28 28 29 29 31 31 31 31 31 31 31 31 32 33 34 36 36 38 39 40 40 41 43 44 45 46 47
22 23 25 26 26 27 26 26 26 27 27 27 27 27 27 27 27 28 28 29 30 31 31 32 32 32 31 32 33 34 34 35 35 36 37 37 38 40 40 42 43 45 46 46
21 23 24 25 25 26 25 24 25 25 26 26 27 27 28 28 27 28 28 30 30 31 31 31 32 32 33 33 34 34 35 35 36 36 36 36 37 38 39 40 42 44 45 46
21 21 23 23 24 24 22 22 24 25 25 25 26 27 27 27 27 27 29 29 29 29 30 31 32 32 33 34 34 34 34 35 35 35 35 36 36 37 38 39 41 42 43 44
20 21 21 22 22 22 21 21 22 24 24 25 26 26 26 27 26 27 27 28 28 29 29 30 31 32 32 33 33 34 34 34 35 35 36 36 37 37 38 39 39 40 41 42
20 21 21 21 22 21 21 22 22 23 24 24 25 26 26 26 26 26 27 27 27 28 28 29 30 31 32 33 33 34 34 34 34 35 35 35 36 37 37 38 38 38 39 39
20 21 22 22 22 22 23 23 23 23 23 24 25 26 26 26 26 27 26 27 27 27 28 29 30 30 31 32 32 32 33 33 33 34 34 34 35 36 36 36 36 36 37 37
22 22 23 24 23 23 23 24 24 24 24 24 25 25 26 27 28 27 27 27 27 27 28 29 29 30 30 31 31 31 30 31 31 32 32 33 33 34 34 35 35 35 35 35
21 22 23 23 22 23 22 23 24 25 24 25 25 26 27 28 28 28 28 28 28 28 29 29 30 29 28 28 28 29 29 29 29 30 31 32 32 32 33 33 33 33 33 32
21 21 22 22 22 23 22 23 24 24 24 25 25 26 26 27 27 28 28 28 28 28 28 28 28 28 27 27 27 27 27 27 27 28 29 29 30 30 31 32 32 32 32 32
Wind_Direction
267 267 268 270 268 267 264 262 260 260 260 258 256 255 254 251 252 252 253 254 253 253 253 252 251 250 249 248 247 246 247 248 249 249 250 251 252 253 254 256 257 258 260 260
267 267 269 268 267 265 264 263 262 260 259 258 256 254 254 253 253 253 254 255 255 254 254 254 252 251 250 249 247 247 247 248 248 248 250 251 252 253 253 255 257 258 259 259
267 267 267 266 266 264 264 264 264 263 260 258 257 254 253 255 256 256 256 256 256 256 255 255 254 253 250 249 247 246 247 248 248 249 249 251 253 254 255 255 256 257 259 260
269 267 266 265 265 265 264 264 264 263 262 259 259 258 253 255 256 258 257 257 258 257 256 254 253 253 251 249 246 245 246 247 248 248 250 252 253 254 255 257 257 257 259 260
270 268 267 265 265 265 264 264 264 264 263 261 258 260 256 257 257 258 259 259 260 258 256 255 253 252 252 249 245 245 246 248 248 249 251 252 253 254 256 257 258 259 260 260
271 270 267 266 265 264 263 263 263 262 262 261 259 262 262 260 260 260 261 261 260 257 256 255 253 251 250 247 245 245 246 247 247 250 250 251 253 254 257 259 260 260 260 261
271 270 268 265 264 263 264 264 264 262 261 263 262 263 265 264 262 262 263 262 261 259 257 255 252 250 248 247 246 247 247 247 248 250 251 252 253 255 257 260 262 261 261 261
271 269 266 264 263 264 264 264 264 265 266 267 265 265 266 266 265 264 264 263 263 260 258 256 252 250 248 247 248 248 248 247 249 250 252 253 254 256 257 259 261 263 263 263
271 269 266 263 262 262 263 263 264 265 267 269 268 268 267 268 268 267 264 264 264 261 259 257 255 253 250 249 249 249 249 249 251 253 255 255 255 256 258 259 260 262 264 264
269 269 266 263 261 260 260 261 263 265 267 269 269 270 271 269 270 270 267 267 266 264 261 258 256 253 251 250 252 252 251 251 252 254 256 256 256 256 258 259 260 261 262 265
268 267 266 263 262 261 258 258 260 265 267 270 271 271 272 272 272 271 271 270 269 266 264 260 256 254 253 253 253 254 253 253 255 255 256 257 257 257 258 259 260 261 263 265
267 266 265 263 263 262 260 259 260 264 265 268 271 272 272 273 274 273 273 272 271 268 265 261 258 257 258 258 257 257 257 258 259 258 257 257 257 258 260 260 261 262 264 266
270 268 266 265 264 262 260 259 260 262 265 265 268 271 271 272 273 273 273 271 270 269 268 265 261 260 259 259 259 259 260 260 261 260 259 260 260 260 261 261 262 263 264 265
271 269 267 267 267 266 264 261 261 263 265 265 267 269 269 271 273 274 274 274 274 270 269 269 266 264 262 260 259 259 260 260 261 261 262 262 262 263 263 264 264 264 264 265
269 268 267 266 265 265 265 262 261 263 267 267 266 267 268 269 271 272 273 274 275 273 271 270 270 268 266 263 262 262 263 264 264 264 265 265 265 265 266 267 267 267 266 266
272 271 270 268 266 265 264 263 263 263 266 268 267 268 269 269 270 271 272 273 274 274 274 273 271 270 268 267 266 267 267 267 267 267 267 267 267 268 269 269 269 268 267 268
272 272 273 271 268 267 266 265 265 266 267 267 267 269 270 269 271 272 272 273 275 275 274 274 272 270 269 268 268 270 269 270 270 269 268 268 269 269 269 270 270 269 269 269
274 276 276 275 271 270 270 269 269 267 268 268 268 269 270 271 272 272 272 273 274 275 275 274 273 272 272 271 271 272 273 272 273 273 272 271 271 270 270 270 270 270 270 271
277 278 279 279 278 275 273 272 271 269 268 267 268 269 272 273 274 273 274 274 275 275 275 275 275 273 273 272 273 273 273 274 275 274 273 274 274 273 273 272 272 272 272 272
279 279 280 281 282 279 277 274 273 272 270 268 268 270 273 275 276 276 276 277 277 276 275 274 274 274 274 275 274 274 273 273 274 274 275 275 275 275 275 276 276 276 275 274
281 282 281 282 282 281 280 277 275 275 274 270 270 272 274 276 278 279 279 278 277 277 277 276 275 275 275 275 275 275 275 274 274 275 276 277 277 277 277 278 278 278 278 276
285 283 282 282 281 282 283 280 277 277 275 273 273 274 275 278 279 281 280 278 279 279 278 278 278 277 276 276 276 276 277 276 275 276 277 277 278 278 278 279 279 279 279 277
287 285 282 281 282 282 280 278 277 277 276 275 275 274 275 276 279 281 280 278 278 278 279 280 281 280 278 277 277 278 278 277 277 277 278 279 280 280 280 281 281 281 280 278
286 284 283 283 283 282 280 278 278 277 277 277 276 276 276 277 279 279 280 280 280 279 281 283 284 283 281 279 279 280 280 280 279 279 279 281 282 282 283 282 283 283 282 279
289 287 284 284 283 281 280 279 278 276 277 278 278 278 278 279 280 280 280 279 280 281 281 283 284 284 282 281 281 281 281 283 283 283 282 282 283 284 284 285 285 285 284 281
291 290 288 287 285 282 283 282 279 279 279 278 278 279 281 281 281 282 280 280 281 282 282 283 284 284 282 282 282 282 282 284 285 285 285 285 286 286 286 287 286 285 284 283
Height
5697 5699 5699 5699 5699 5698 5698 5699 5699 5701 5701 5701 5702 5705 5708 5709 5710 5712 5713 5715 5717 5718 5719 5720 5722 5724 5726 5729 5732 5735 5739 5742 5745 5747 5750 5752 5753 5755 5756 5757 5758 5759 5760 5761
5691 5691 5692 5691 5691 5691 5691 5692 5692 5693 5693 5694 5695 5697 5700 5701 5702 5704 5705 5707 5708 5709 5710 5712 5713 5715 5716 5719 5722 5725 5729 5732 5735 5738 5741 5743 5745 5746 5747 5748 5749 5750 5751 5752
5683 5685 5684 5684 5684 5684 5685 5685 5686 5686 5686 5687 5688 5690 5694 5695 5695 5696 5698 5698 5699 5700 5701 5702 5703 5705 5707 5709 5713 5716 5719 5723 5726 5729 5731 5733 5736 5737 5738 5739 5740 5742 5743 5744
5676 5677 5677 5677 5678 5678 5678 5679 5679 5679 5679 5680 5682 5682 5687 5688 5689 5689 5690 5690 5691 5691 5692 5693 5694 5696 5698 5700 5703 5706 5710 5713 5716 5719 5721 5724 5726 5729 5730 5731 5732 5733 5734 5734
5669 5670 5670 5671 5672 5671 5672 5672 5672 5672 5672 5674 5675 5675 5680 5681 5682 5682 5682 5682 5682 5682 5683 5684 5685 5686 5689 5691 5694 5697 5701 5704 5707 5710 5712 5715 5717 5719 5721 5721 5722 5723 5724 5725
5662 5663 5663 5664 5664 5665 5665 5666 5665 5665 5665 5667 5669 5668 5671 5674 5674 5674 5674 5674 5673 5673 5674 5675 5676 5678 5680 5682 5685 5688 5692 5695 5698 5701 5703 5705 5707 5709 5711 5712 5713 5714 5715 5716
5655 5656 5656 5657 5658 5658 5659 5660 5659 5658 5659 5660 5662 5662 5665 5666 5666 5666 5666 5666 5665 5665 5665 5666 5667 5669 5671 5673 5675 5679 5682 5686 5688 5691 5693 5695 5697 5699 5701 5702 5703 5704 5705 5706
5648 5650 5650 5650 5651 5652 5652 5653 5654 5653 5653 5654 5654 5655 5659 5659 5659 5658 5658 5658 5657 5657 5657 5658 5659 5660 5662 5664 5667 5670 5672 5676 5678 5681 5683 5685 5687 5689 5691 5692 5693 5694 5694 5695
5641 5642 5643 5644 5644 5645 5646 5646 5647 5647 5646 5647 5647 5650 5652 5652 5652 5652 5651 5650 5650 5650 5650 5651 5651 5652 5653 5656 5658 5661 5663 5665 5668 5671 5673 5675 5676 5678 5680 5681 5682 5683 5684 5684
5634 5635 5636 5637 5638 5638 5640 5640 5641 5640 5639 5639 5641 5643 5645 5645 5645 5645 5644 5644 5643 5642 5642 5643 5643 5644 5646 5647 5649 5651 5653 5656 5658 5660 5662 5664 5665 5667 5669 5670 5671 5672 5673 5673
5627 5628 5629 5630 5631 5632 5633 5634 5634 5633 5633 5634 5634 5639 5639 5639 5638 5638 5638 5637 5636 5636 5635 5635 5636 5637 5638 5639 5641 5642 5644 5646 5648 5649 5651 5653 5654 5656 5657 5658 5660 5660 5661 5661
5620 5621 5621 5623 5624 5624 5626 5627 5627 5628 5628 5628 5628 5634 5632 5632 5632 5631 5631 5630 5629 5629 5629 5629 5629 5629 5630 5631 5632 5634 5635 5637 5637 5639 5640 5641 5643 5644 5645 5647 5648 5648 5649 5650
5614 5614 5615 5616 5619 5619 5618 5619 5620 5620 5621 5621 5622 5628 5626 5626 5625 5625 5624 5623 5623 5623 5623 5622 5622 5622 5622 5623 5624 5625 5626 5627 5628 5628 5629 5631 5632 5633 5634 5634 5635 5636 5637 5637
5607 5607 5609 5610 5610 5610 5611 5613 5613 5613 5613 5614 5616 5618 5619 5619 5618 5618 5617 5617 5617 5617 5616 5615 5615 5615 5615 5615 5615 5616 5616 5617 5618 5619 5619 5620 5621 5621 5622 5623 5623 5624 5624 5624
5600 5601 5601 5602 5602 5603 5604 5605 5606 5606 5607 5607 5609 5610 5612 5611 5610 5610 5610 5610 5609 5609 5608 5608 5607 5607 5607 5607 5607 5607 5607 5607 5608 5608 5608 5609 5610 5610 5610 5611 5611 5611 5611 5611
5594 5595 5595 5595 5596 5595 5596 5598 5599 5600 5600 5600 5601 5602 5603 5603 5602 5602 5602 5602 5602 5601 5601 5600 5599 5599 5598 5598 5598 5598 5598 5598 5597 5597 5597 5598 5599 5599 5599 5599 5599 5599 5598 5598
5588 5588 5588 5589 5589 5588 5590 5593 5592 5592 5593 5593 5593 5596 5595 5595 5595 5594 5594 5594 5593 5593 5592 5591 5591 5590 5590 5590 5589 5589 5589 5588 5587 5587 5587 5587 5587 5587 5587 5587 5586 5586 5586 5585
5583 5582 5581 5582 5582 5582 5588 5586 5586 5585 5586 5586 5586 5586 5586 5587 5587 5586 5586 5585 5584 5584 5583 5583 5582 5581 5581 5581 5580 5579 5579 5578 5577 5577 5576 5576 5575 5575 5575 5574 5574 5573 5573 5572
5577 5576 5575 5575 5575 5576 5580 5579 5578 5578 5579 5579 5578 5578 5579 5578 5578 5579 5578 5577 5576 5575 5574 5573 5573 5572 5572 5571 5571 5570 5569 5568 5567 5566 5566 5565 5564 5563 5563 5562 5561 5561 5560 5559
5572 5571 5571 5570 5569 5570 5573 5572 5570 5571 5572 5571 5570 5570 5571 5570 5570 5571 5569 5568 5567 5566 5565 5564 5563 5563 5562 5561 5561 5560 5559 5558 5557 5557 5556 5555 5554 5553 5552 5551 5549 5548 5547 5546
5567 5566 5565 5564 5563 5564 5566 5564 5564 5565 5565 5563 5563 5562 5562 5562 5562 5562 5561 5559 5558 5557 5556 5555 5554 5554 5553 5552 5551 5550 5549 5548 5547 5546 5545 5544 5543 5542 5541 5539 5538 5536 5534 5533
5561 5560 5560 5558 5558 5561 5559 5557 5557 5556 5555 5555 5555 5555 5555 5555 5554 5554 5553 5551 5550 5549 5548 5547 5546 5545 5544 5542 5541 5540 5539 5538 5537 5536 5535 5534 5532 5531 5530 5528 5527 5525 5523 5521
5556 5555 5553 5553 5555 5553 5551 5550 5549 5548 5548 5548 5547 5548 5547 5547 5547 5546 5545 5544 5542 5541 5540 5539 5537 5536 5534 5532 5531 5530 5529 5528 5527 5526 5525 5523 5522 5521 5519 5518 5516 5514 5512 5510
5550 5549 5547 5546 5547 5546 5544 5543 5542 5541 5541 5540 5540 5540 5539 5539 5539 5538 5537 5536 5534 5533 5532 5530 5529 5527 5525 5523 5522 5520 5520 5518 5517 5516 5515 5513 5512 5510 5509 5507 5505 5504 5501 5500
5544 5542 5540 5540 5540 5538 5538 5536 5535 5534 5534 5533 5532 5532 5531 5531 5530 5529 5529 5528 5527 5525 5524 5522 5520 5518 5516 5514 5513 5512 5511 5509 5508 5507 5505 5504 5502 5501 5499 5497 5495 5493 5491 5490
5538 5536 5535 5534 5533 5531 5531 5529 5528 5527 5527 5526 5525 5525 5524 5523 5522 5521 5520 5519 5518 5517 5515 5514 5512 5510 5508 5506 5505 5504 5502 5501 5500 5498 5497 5495 5494 5492 5490 5488 5485 5483 5482 5480